Regional Weather Roundup
Issued by NWS Charleston, SC

Current Version | Previous Version | Text Only | Print | Product List | Glossary On
Versions: 1 2 3 4 5 6 7 8 9 10 11 12 13 14 15 16 17 18 19 20 21 22 23 24 25 26 27 28 29 30 31 32 33 34 35 36 37 38 39 40 41 42 43 44 45 46 47 48 49 50
000 ASUS42 KCHS 020710 RWRCHS REGIONAL WEATHER ROUNDUP NATIONAL WEATHER SERVICE CHARLESTON SC 300 AM EDT TUE SEP 02 2014 NOTE: "FAIR" INDICATES FEW OR NO CLOUDS BELOW 12,000 FEET WITH NO SIGNIFICANT WEATHER AND/OR OBSTRUCTIONS TO VISIBILITY. NOT ALL STATIONS ARE QUALITY CONTROLLED BY THE NATIONAL WEATHER SERVICE. USE DATA WITH CAUTION...ESPECIALLY DEWPOINT OBSERVATIONS. SCZ027-030-031-034>040-042>050-020800- ...SOUTH CAROLINA... CITY SKY/WX TMP DP RH WIND PRES REMARKS N CHARLESTON CLEAR 79 76 90 S3 30.08F WATERFRONT PRK N/A 82 N/A N/A S5 N/A FORT JOHNSON NOT AVBL MOUNT PLEASANT FAIR 79 77 94 CALM 30.08F FOG JOHNS ISLAND PTSUNNY 81 79 94 CALM 30.09S PINOPOLIS N/A 81 77 89 SW5 29.99F MONCKS CORNER N/A 77 77 100 CALM 30.08S FOG SUMMERVILLE FAIR 73 73 100 CALM 30.08F BEAUFORT MCAS CLEAR 80 77 90 CALM 30.07F BEAUFORT ARPT FAIR 81 79 94 S3 30.07F HILTON HEAD IS CLEAR 81 77 89 S5 30.08F GEORGETOWN NOT AVBL WALTERBORO MOSUNNY 77 N/A N/A CALM 30.09F ORANGEBURG PTCLDY 76 73 91 S6 30.07F BARNWELL FAIR 79 75 89 SE5 30.08F AIKEN FAIR 75 75 100 SE3 30.10F MANNING FAIR 81 N/A N/A CALM 30.08S KINGSTREE NOT AVBL COLUMBIA MOCLDY 78 71 79 CALM 30.06F SUMTER PTCLDY 76 75 96 SW5 30.06F FLORENCE PTCLDY 76 73 91 SW6 30.07F MYRTLE BEACH CLEAR 81 75 83 SW6 30.07F N MYRTLE BEACH PTCLDY 81 77 88 SW6 30.07F $$ GAZ063-065-086>088-099>101-113>116-118-119-134-136>141-150-020800- ...GEORGIA... CITY SKY/WX TMP DP RH WIND PRES REMARKS SAVANNAH ARPT CLEAR 80 75 84 SW5 30.07F HUNTER AAF PTCLDY 80 76 89 S5 30.05F FORT STEWART PTCLDY 77 74 89 CALM 30.06F STATESBORO NOT AVBL SYLVANIA PTSUNNY 79 77 95 CALM 30.09F CLAXTON NOT AVBL THOMSON MOCLDY 74 74 100 CALM 30.12F AUGUSTA-BUSH MOCLDY 74 73 97 CALM 30.06F AUGUSTA-DANIEL MOCLDY 78 72 81 CALM 30.08S SWAINSBORO FAIR 77 77 100 CALM 30.08F VIDALIA N/A 77 73 88 S3 30.06F ALMA CLOUDY 77 72 84 W3 30.06F WAYCROSS CLOUDY 80 78 94 CALM 30.05F JESUP N/A 77 73 88 CALM 30.06F BRUNSWICK PTCLDY 81 73 78 CALM 30.06F SAINT SIMONS PTCLDY 80 75 84 S5 30.06F $$ SCZ027-028-034-036>038-045-046-048>050-GAZ119-141-020800- ...LAKE AND SUPPLEMENTAL COASTAL OBSERVATIONS... STATION/POSITION TIME TEMP WIND PRES WAVE SWELL AIR SEA DIR/SP/G HT/PER HT/PER/DIR (UTC) (F) (DEG/KT/KT) (MB) (FT/S) (FT/S/D) UPR LAKE MARION NOT AVBL WINYAH BAY 0600 80 220/ 3 1019.0S LAKE MURRAY 0600 80 180/ 6/ 8 1017.6S ACE BASIN NERRS 0600 81 CALM 1018.0S FORT PULASKI 0700 83 210/ 5/ 8 1018.5F SAPELO ISLAND 0600 81 210/ 8 1019.0S $$ ANZ835-935-AMZ111-154-330-350-352-354-374-450-454-472-020800- ...C-MAN AND BUOY OBSERVATIONS... STATION/POSITION TIME TEMP WIND PRES WAVE SWELL AIR SEA DIR/SP/G HT/PER HT/PER/DIR (UTC) (F) (DEG/KT/KT) (MB) (FT/S) (FT/S/D) FOLLY BEACH CMAN 0600 83 210/ 11/ 13 1019.3F BUOY 41004 0700 83 83 210/ 10/ 10 1018.4F 3/ 9 2/ 9 BUOY 41008 0700 83 85 210/ 14/ 16 1018.2F 2/ 9 2/100/ 9 5E ST. MARYS GA 0700 85 N/A 2/ 3 FRYING PAN BUOY NOT AVBL BUOY 41025 0700 81 230/ 17/ 19 1017.6F 4/ 4 2/110/ 9 CAPE LOOKOUT NC 0600 81 230/ 9/ 12 1018.4F BUOY 41002 0626 81 83 210/ 12/ 14 1020.2F 4/11 3/ 70/11 BUOY 41010 0700 82 84 160/ 6/ 8 1018.9F 3/ 9 3/ 80/ 9 BUOY 41012 NOT AVBL ST AUGUSTINE FL 0700 79 240/ 5/ 6 1019.1F CAPERS NEARSHORE 0600 83 220/ 10/ 12 N/A FRIPP NEARSHORE NOT AVBL $$

USA.gov is the U.S. government's official web portal to all federal, state and local government web resources and services.